Year,Month,Day,Hour,Minute,Value (Times are PST for temperature in C)
2016,06,10,00,00,11.90
2016,06,10,00,01,11.90
2016,06,10,00,02,11.90
2016,06,10,00,03,11.90
2016,06,10,00,04,11.90
2016,06,10,00,05,11.90
2016,06,10,00,06,11.90
2016,06,10,00,07,11.90
2016,06,10,00,08,11.90
2016,06,10,00,09,11.90
2016,06,10,00,10,11.90
2016,06,10,00,11,11.90
2016,06,10,00,12,11.80
2016,06,10,00,13,11.80
2016,06,10,00,14,11.80
2016,06,10,00,15,11.80
2016,06,10,00,16,11.80
2016,06,10,00,17,11.80
2016,06,10,00,18,11.80
2016,06,10,00,19,11.70
2016,06,10,00,20,11.70
2016,06,10,00,21,11.70
2016,06,10,00,22,11.70
2016,06,10,00,23,11.70
2016,06,10,00,24,11.70
2016,06,10,00,25,11.70
2016,06,10,00,26,11.70
2016,06,10,00,27,11.70
2016,06,10,00,28,11.70
2016,06,10,00,29,11.60
2016,06,10,00,30,11.60
2016,06,10,00,31,11.60
2016,06,10,00,32,11.60
2016,06,10,00,33,11.60
2016,06,10,00,34,11.60
2016,06,10,00,35,11.60
2016,06,10,00,36,11.60
2016,06,10,00,37,11.60
2016,06,10,00,38,11.60
2016,06,10,00,39,11.60
2016,06,10,00,40,11.60
2016,06,10,00,41,11.60
2016,06,10,00,42,11.60
2016,06,10,00,43,11.60
2016,06,10,00,44,11.60
2016,06,10,00,45,11.60
2016,06,10,00,46,11.60
2016,06,10,00,47,11.60
2016,06,10,00,48,11.60
2016,06,10,00,49,11.60
2016,06,10,00,50,11.60
2016,06,10,00,51,11.60
2016,06,10,00,52,11.60
2016,06,10,00,53,11.60
2016,06,10,00,54,11.50
2016,06,10,00,55,11.50
2016,06,10,00,56,11.50
2016,06,10,00,57,11.50
2016,06,10,00,58,11.50
2016,06,10,00,59,11.40
2016,06,10,01,00,11.40
2016,06,10,01,01,11.40
2016,06,10,01,02,11.40
2016,06,10,01,03,11.40
2016,06,10,01,04,11.40
2016,06,10,01,05,11.40
2016,06,10,01,06,11.40
2016,06,10,01,07,11.40
2016,06,10,01,08,11.40
2016,06,10,01,09,11.50
2016,06,10,01,10,11.50
2016,06,10,01,11,11.50
2016,06,10,01,12,11.50
2016,06,10,01,13,11.60
2016,06,10,01,14,11.60
2016,06,10,01,15,11.60
2016,06,10,01,16,11.60
2016,06,10,01,17,11.60
2016,06,10,01,18,11.60
2016,06,10,01,19,11.60
2016,06,10,01,20,11.60
2016,06,10,01,21,11.60
2016,06,10,01,22,11.60
2016,06,10,01,23,11.60
2016,06,10,01,24,11.60
2016,06,10,01,25,11.60
2016,06,10,01,26,11.60
2016,06,10,01,27,11.60
2016,06,10,01,28,11.60
2016,06,10,01,29,11.60
2016,06,10,01,30,11.60
2016,06,10,01,31,11.60
2016,06,10,01,32,11.60
2016,06,10,01,33,11.60
2016,06,10,01,34,11.60
2016,06,10,01,35,11.60
2016,06,10,01,36,11.60
2016,06,10,01,37,11.60
2016,06,10,01,38,11.60
2016,06,10,01,39,11.60
2016,06,10,01,40,11.50
2016,06,10,01,41,11.50
2016,06,10,01,42,11.50
2016,06,10,01,43,11.50
2016,06,10,01,44,11.50
2016,06,10,01,45,11.50
2016,06,10,01,46,11.40
2016,06,10,01,47,11.40
2016,06,10,01,48,11.40
2016,06,10,01,49,11.40
2016,06,10,01,50,11.40
2016,06,10,01,51,11.40
2016,06,10,01,52,11.40
2016,06,10,01,53,11.40
2016,06,10,01,54,11.40
2016,06,10,01,55,11.40
2016,06,10,01,56,11.30
2016,06,10,01,57,11.30
2016,06,10,01,58,11.30
2016,06,10,01,59,11.30
2016,06,10,02,00,11.30
2016,06,10,02,01,11.30
2016,06,10,02,02,11.30
2016,06,10,02,03,11.30
2016,06,10,02,04,11.30
2016,06,10,02,05,11.20
2016,06,10,02,06,11.20
2016,06,10,02,07,11.20
2016,06,10,02,08,11.20
2016,06,10,02,09,11.20
2016,06,10,02,10,11.10
2016,06,10,02,11,11.10
2016,06,10,02,12,11.10
2016,06,10,02,13,11.10
2016,06,10,02,14,11.10
2016,06,10,02,15,11.10
2016,06,10,02,16,11.00
2016,06,10,02,17,11.00
2016,06,10,02,18,11.00
2016,06,10,02,19,10.90
2016,06,10,02,20,10.90
2016,06,10,02,21,10.90
2016,06,10,02,22,10.90
2016,06,10,02,23,10.90
2016,06,10,02,24,10.80
2016,06,10,02,25,10.80
2016,06,10,02,26,10.80
2016,06,10,02,27,10.80
2016,06,10,02,28,10.80
2016,06,10,02,29,10.80
2016,06,10,02,30,10.80
2016,06,10,02,31,10.80
2016,06,10,02,32,10.80
2016,06,10,02,33,10.80
2016,06,10,02,34,10.80
2016,06,10,02,35,10.80
2016,06,10,02,36,10.70
2016,06,10,02,37,10.70
2016,06,10,02,38,10.70
2016,06,10,02,39,10.70
2016,06,10,02,40,10.70
2016,06,10,02,41,10.70
2016,06,10,02,42,10.70
2016,06,10,02,43,10.70
2016,06,10,02,44,10.70
2016,06,10,02,45,10.70
2016,06,10,02,46,10.70
2016,06,10,02,47,10.70
2016,06,10,02,48,10.70
2016,06,10,02,49,10.70
2016,06,10,02,50,10.70
2016,06,10,02,51,10.70
2016,06,10,02,52,10.70
2016,06,10,02,53,10.70
2016,06,10,02,54,10.70
2016,06,10,02,55,10.70
2016,06,10,02,56,10.60
2016,06,10,02,57,10.60
2016,06,10,02,58,10.60
2016,06,10,02,59,10.60
2016,06,10,03,00,10.60
2016,06,10,03,01,10.60
2016,06,10,03,02,10.60
2016,06,10,03,03,10.60
2016,06,10,03,04,10.60
2016,06,10,03,05,10.50
2016,06,10,03,06,10.50
2016,06,10,03,07,10.50
2016,06,10,03,08,10.50
2016,06,10,03,09,10.50
2016,06,10,03,10,10.50
2016,06,10,03,11,10.50
2016,06,10,03,12,10.50
2016,06,10,03,13,10.50
2016,06,10,03,14,10.40
2016,06,10,03,15,10.40
2016,06,10,03,16,10.40
2016,06,10,03,17,10.40
2016,06,10,03,18,10.40
2016,06,10,03,19,10.40
2016,06,10,03,20,10.40
2016,06,10,03,21,10.40
2016,06,10,03,22,10.40
2016,06,10,03,23,10.40
2016,06,10,03,24,10.40
2016,06,10,03,25,10.30
2016,06,10,03,26,10.30
2016,06,10,03,27,10.30
2016,06,10,03,28,10.30
2016,06,10,03,29,10.30
2016,06,10,03,30,10.30
2016,06,10,03,31,10.30
2016,06,10,03,32,10.30
2016,06,10,03,33,10.30
2016,06,10,03,34,10.30
2016,06,10,03,35,10.30
2016,06,10,03,36,10.30
2016,06,10,03,37,10.30
2016,06,10,03,38,10.30
2016,06,10,03,39,10.20
2016,06,10,03,40,10.20
2016,06,10,03,41,10.20
2016,06,10,03,42,10.20
2016,06,10,03,43,10.20
2016,06,10,03,44,10.20
2016,06,10,03,45,10.20
2016,06,10,03,46,10.20
2016,06,10,03,47,10.20
2016,06,10,03,48,10.20
2016,06,10,03,49,10.20
2016,06,10,03,50,10.10
2016,06,10,03,51,10.10
2016,06,10,03,52,10.10
2016,06,10,03,53,10.10
2016,06,10,03,54,10.10
2016,06,10,03,55,10.10
2016,06,10,03,56,10.10
2016,06,10,03,57,10.10
2016,06,10,03,58,10.00
2016,06,10,03,59,10.00
2016,06,10,04,00,10.00
2016,06,10,04,01,10.00
2016,06,10,04,02,10.00
2016,06,10,04,03,10.00
2016,06,10,04,04,10.00
2016,06,10,04,05,9.90
2016,06,10,04,06,9.90
2016,06,10,04,07,9.90
2016,06,10,04,08,9.90
2016,06,10,04,09,9.90
2016,06,10,04,10,9.90
2016,06,10,04,11,9.90
2016,06,10,04,12,10.00
2016,06,10,04,13,10.00
2016,06,10,04,14,10.00
2016,06,10,04,15,10.00
2016,06,10,04,16,10.00
2016,06,10,04,17,10.00
2016,06,10,04,18,10.00
2016,06,10,04,19,10.00
2016,06,10,04,20,9.90
2016,06,10,04,21,9.90
2016,06,10,04,22,9.90
2016,06,10,04,23,9.90
2016,06,10,04,24,9.90
2016,06,10,04,25,9.90
2016,06,10,04,26,9.90
2016,06,10,04,27,9.80
2016,06,10,04,28,9.80
2016,06,10,04,29,9.80
2016,06,10,04,30,9.80
2016,06,10,04,31,9.80
2016,06,10,04,32,9.80
2016,06,10,04,33,9.80
2016,06,10,04,34,9.80
2016,06,10,04,35,9.80
2016,06,10,04,36,9.80
2016,06,10,04,37,9.70
2016,06,10,04,38,9.70
2016,06,10,04,39,9.70
2016,06,10,04,40,9.70
2016,06,10,04,41,9.70
2016,06,10,04,42,9.70
2016,06,10,04,43,9.70
2016,06,10,04,44,9.60
2016,06,10,04,45,9.60
2016,06,10,04,46,9.60
2016,06,10,04,47,9.60
2016,06,10,04,48,9.60
2016,06,10,04,49,9.60
2016,06,10,04,50,9.50
2016,06,10,04,51,9.50
2016,06,10,04,52,9.50
2016,06,10,04,53,9.50
2016,06,10,04,54,9.40
2016,06,10,04,55,9.40
2016,06,10,04,56,9.40
2016,06,10,04,57,9.40
2016,06,10,04,58,9.40
2016,06,10,04,59,9.30
2016,06,10,05,00,9.30
2016,06,10,05,01,9.30
2016,06,10,05,02,9.30
2016,06,10,05,03,9.30
2016,06,10,05,04,9.20
2016,06,10,05,05,9.20
2016,06,10,05,06,9.20
2016,06,10,05,07,9.20
2016,06,10,05,08,9.20
2016,06,10,05,09,9.20
2016,06,10,05,10,9.10
2016,06,10,05,11,9.10
2016,06,10,05,12,9.10
2016,06,10,05,13,9.10
2016,06,10,05,14,9.00
2016,06,10,05,15,9.00
2016,06,10,05,16,9.00
2016,06,10,05,17,8.90
2016,06,10,05,18,8.90
2016,06,10,05,19,8.90
2016,06,10,05,20,8.90
2016,06,10,05,21,8.80
2016,06,10,05,22,8.80
2016,06,10,05,23,8.80
2016,06,10,05,24,8.80
2016,06,10,05,25,8.80
2016,06,10,05,26,8.80
2016,06,10,05,27,8.70
2016,06,10,05,28,8.70
2016,06,10,05,29,8.70
2016,06,10,05,30,8.60
2016,06,10,05,31,8.60
2016,06,10,05,32,8.50
2016,06,10,05,33,8.50
2016,06,10,05,34,8.40
2016,06,10,05,35,8.40
2016,06,10,05,36,8.30
2016,06,10,05,37,8.30
2016,06,10,05,38,8.30
2016,06,10,05,39,8.30
2016,06,10,05,40,8.30
2016,06,10,05,41,8.30
2016,06,10,05,42,8.30
2016,06,10,05,43,8.30
2016,06,10,05,44,8.30
2016,06,10,05,45,8.30
2016,06,10,05,46,8.30
2016,06,10,05,47,8.30
2016,06,10,05,48,8.40
2016,06,10,05,49,8.40
2016,06,10,05,50,8.40
2016,06,10,05,51,8.40
2016,06,10,05,52,8.40
2016,06,10,05,53,8.40
2016,06,10,05,54,8.40
2016,06,10,05,55,8.40
2016,06,10,05,56,8.40
2016,06,10,05,57,8.40
2016,06,10,05,58,8.40
2016,06,10,05,59,8.40
2016,06,10,06,00,8.40
2016,06,10,06,01,8.40
2016,06,10,06,02,8.40
2016,06,10,06,03,8.50
2016,06,10,06,04,8.50
2016,06,10,06,05,8.50
2016,06,10,06,06,8.50
2016,06,10,06,07,8.60
2016,06,10,06,08,8.60
2016,06,10,06,09,8.60
2016,06,10,06,10,8.60
2016,06,10,06,11,8.60
2016,06,10,06,12,8.60
2016,06,10,06,13,8.60
2016,06,10,06,14,8.60
2016,06,10,06,15,8.60
2016,06,10,06,16,8.60
2016,06,10,06,17,8.60
2016,06,10,06,18,8.60
2016,06,10,06,19,8.60
2016,06,10,06,20,8.60
2016,06,10,06,21,8.60
2016,06,10,06,22,8.60
2016,06,10,06,23,8.70
2016,06,10,06,24,8.70
2016,06,10,06,25,8.70
2016,06,10,06,26,8.70
2016,06,10,06,27,8.80
2016,06,10,06,28,8.80
2016,06,10,06,29,8.80
2016,06,10,06,30,8.80
2016,06,10,06,31,8.80
2016,06,10,06,32,8.90
2016,06,10,06,33,8.90
2016,06,10,06,34,8.90
2016,06,10,06,35,8.90
2016,06,10,06,36,8.90
2016,06,10,06,37,8.90
2016,06,10,06,38,8.90
2016,06,10,06,39,8.90
2016,06,10,06,40,9.00
2016,06,10,06,41,9.00
2016,06,10,06,42,9.00
2016,06,10,06,43,9.10
2016,06,10,06,44,9.10
2016,06,10,06,45,9.10
2016,06,10,06,46,9.20
2016,06,10,06,47,9.20
2016,06,10,06,48,9.20
2016,06,10,06,49,9.30
2016,06,10,06,50,9.30
2016,06,10,06,51,9.30
2016,06,10,06,52,9.30
2016,06,10,06,53,9.40
2016,06,10,06,54,9.40
2016,06,10,06,55,9.40
2016,06,10,06,56,9.40
2016,06,10,06,57,9.40
2016,06,10,06,58,9.50
2016,06,10,06,59,9.50
2016,06,10,07,00,9.50
2016,06,10,07,01,9.60
2016,06,10,07,02,9.60
2016,06,10,07,03,9.60
2016,06,10,07,04,9.60
2016,06,10,07,05,9.60
2016,06,10,07,06,9.70
2016,06,10,07,07,9.70
2016,06,10,07,08,9.80
2016,06,10,07,09,9.80
2016,06,10,07,10,9.80
2016,06,10,07,11,9.80
2016,06,10,07,12,9.80
2016,06,10,07,13,9.90
2016,06,10,07,14,9.90
2016,06,10,07,15,9.90
2016,06,10,07,16,9.90
2016,06,10,07,17,9.90
2016,06,10,07,18,10.00
2016,06,10,07,19,10.10
2016,06,10,07,20,10.10
2016,06,10,07,21,10.20
2016,06,10,07,22,10.30
2016,06,10,07,23,10.40
2016,06,10,07,24,10.50
2016,06,10,07,25,10.60
2016,06,10,07,26,10.60
2016,06,10,07,27,10.60
2016,06,10,07,28,10.70
2016,06,10,07,29,10.70
2016,06,10,07,30,10.70
2016,06,10,07,31,10.80
2016,06,10,07,32,10.80
2016,06,10,07,33,10.90
2016,06,10,07,34,10.90
2016,06,10,07,35,10.90
2016,06,10,07,36,10.90
2016,06,10,07,37,10.90
2016,06,10,07,38,10.90
2016,06,10,07,39,10.90
2016,06,10,07,40,10.90
2016,06,10,07,41,10.90
2016,06,10,07,42,10.90
2016,06,10,07,43,10.90
2016,06,10,07,44,10.90
2016,06,10,07,45,11.00
2016,06,10,07,46,11.00
2016,06,10,07,47,11.00
2016,06,10,07,48,11.00
2016,06,10,07,49,11.10
2016,06,10,07,50,11.10
2016,06,10,07,51,11.10
2016,06,10,07,52,11.10
2016,06,10,07,53,11.10
2016,06,10,07,54,11.20
2016,06,10,07,55,11.20
2016,06,10,07,56,11.30
2016,06,10,07,57,11.30
2016,06,10,07,58,11.30
2016,06,10,07,59,11.40
2016,06,10,08,00,11.40
2016,06,10,08,01,11.40
2016,06,10,08,02,11.40
2016,06,10,08,03,11.40
2016,06,10,08,04,11.50
2016,06,10,08,05,11.50
2016,06,10,08,06,11.50
2016,06,10,08,07,11.50
2016,06,10,08,08,11.50
2016,06,10,08,09,11.60
2016,06,10,08,10,11.60
2016,06,10,08,11,11.70
2016,06,10,08,12,11.70
2016,06,10,08,13,11.70
2016,06,10,08,14,11.60
2016,06,10,08,15,11.60
2016,06,10,08,16,11.60
2016,06,10,08,17,11.60
2016,06,10,08,18,11.60
2016,06,10,08,19,11.50
2016,06,10,08,20,11.50
2016,06,10,08,21,11.50
2016,06,10,08,22,11.50
2016,06,10,08,23,11.50
2016,06,10,08,24,11.50
2016,06,10,08,25,11.60
2016,06,10,08,26,11.60
2016,06,10,08,27,11.70
2016,06,10,08,28,11.70
2016,06,10,08,29,11.80
2016,06,10,08,30,11.80
2016,06,10,08,31,11.80
2016,06,10,08,32,11.90
2016,06,10,08,33,11.90
2016,06,10,08,34,11.90
2016,06,10,08,35,12.00
2016,06,10,08,36,12.00
2016,06,10,08,37,12.10
2016,06,10,08,38,12.10
2016,06,10,08,39,12.20
2016,06,10,08,40,12.20
2016,06,10,08,41,12.20
2016,06,10,08,42,12.20
2016,06,10,08,43,12.20
2016,06,10,08,44,12.30
2016,06,10,08,45,12.30
2016,06,10,08,46,12.30
2016,06,10,08,47,12.30
2016,06,10,08,48,12.30
2016,06,10,08,49,12.30
2016,06,10,08,50,12.30
2016,06,10,08,51,12.40
2016,06,10,08,52,12.40
2016,06,10,08,53,12.40
2016,06,10,08,54,12.40
2016,06,10,08,55,12.50
2016,06,10,08,56,12.60
2016,06,10,08,57,12.60
2016,06,10,08,58,12.60
2016,06,10,08,59,12.60
2016,06,10,09,00,12.60
2016,06,10,09,01,12.70
2016,06,10,09,02,12.70
2016,06,10,09,03,12.70
2016,06,10,09,04,12.80
2016,06,10,09,05,12.80
2016,06,10,09,06,12.80
2016,06,10,09,07,12.80
2016,06,10,09,08,12.90
2016,06,10,09,09,13.00
2016,06,10,09,10,13.10
2016,06,10,09,11,13.20
2016,06,10,09,12,13.30
2016,06,10,09,13,13.40
2016,06,10,09,14,13.50
2016,06,10,09,15,13.60
2016,06,10,09,16,13.60
2016,06,10,09,17,13.60
2016,06,10,09,18,13.70
2016,06,10,09,19,13.70
2016,06,10,09,20,13.70
2016,06,10,09,21,13.70
2016,06,10,09,22,13.70
2016,06,10,09,23,13.60
2016,06,10,09,24,13.60
2016,06,10,09,25,13.50
2016,06,10,09,26,13.40
2016,06,10,09,27,13.40
2016,06,10,09,28,13.30
2016,06,10,09,29,13.30
2016,06,10,09,30,13.20
2016,06,10,09,31,13.20
2016,06,10,09,32,13.20
2016,06,10,09,33,13.20
2016,06,10,09,34,13.20
2016,06,10,09,35,13.20
2016,06,10,09,36,13.20
2016,06,10,09,37,13.20
2016,06,10,09,38,13.20
2016,06,10,09,39,13.20
2016,06,10,09,40,13.20
2016,06,10,09,41,13.30
2016,06,10,09,42,13.30
2016,06,10,09,43,13.30
2016,06,10,09,44,13.40
2016,06,10,09,45,13.40
2016,06,10,09,46,13.50
2016,06,10,09,47,13.50
2016,06,10,09,48,13.60
2016,06,10,09,49,13.70
2016,06,10,09,50,13.70
2016,06,10,09,51,13.70
2016,06,10,09,52,13.70
2016,06,10,09,53,13.70
2016,06,10,09,54,13.70
2016,06,10,09,55,13.70
2016,06,10,09,56,13.70
2016,06,10,09,57,13.60
2016,06,10,09,58,13.60
2016,06,10,09,59,13.60
2016,06,10,10,00,13.60
2016,06,10,10,01,13.60
2016,06,10,10,02,13.60
2016,06,10,10,03,13.60
2016,06,10,10,04,13.60
2016,06,10,10,05,13.60
2016,06,10,10,06,13.70
2016,06,10,10,07,13.70
2016,06,10,10,08,13.80
2016,06,10,10,09,13.80
2016,06,10,10,10,13.80
2016,06,10,10,11,13.90
2016,06,10,10,12,13.90
2016,06,10,10,13,14.00
2016,06,10,10,14,14.20
2016,06,10,10,15,14.30
2016,06,10,10,16,14.40
2016,06,10,10,17,14.40
2016,06,10,10,18,14.40
2016,06,10,10,19,14.40
2016,06,10,10,20,14.30
2016,06,10,10,21,14.30
2016,06,10,10,22,14.30
2016,06,10,10,23,14.30
2016,06,10,10,24,14.30
2016,06,10,10,25,14.30
2016,06,10,10,26,14.30
2016,06,10,10,27,14.30
2016,06,10,10,28,14.30
2016,06,10,10,29,14.30
2016,06,10,10,30,14.30
2016,06,10,10,31,14.30
2016,06,10,10,32,14.30
2016,06,10,10,33,14.30
2016,06,10,10,34,14.20
2016,06,10,10,35,14.20
2016,06,10,10,36,14.20
2016,06,10,10,37,14.10
2016,06,10,10,38,14.10
2016,06,10,10,39,14.10
2016,06,10,10,40,14.00
2016,06,10,10,41,14.00
2016,06,10,10,42,14.00
2016,06,10,10,43,14.10
2016,06,10,10,44,14.10
2016,06,10,10,45,14.10
2016,06,10,10,46,14.10
2016,06,10,10,47,14.10
2016,06,10,10,48,14.10
2016,06,10,10,49,14.00
2016,06,10,10,50,14.00
2016,06,10,10,51,13.90
2016,06,10,10,52,13.90
2016,06,10,10,53,13.90
2016,06,10,10,54,13.90
2016,06,10,10,55,13.90
2016,06,10,10,56,13.90
2016,06,10,10,57,13.90
2016,06,10,10,58,13.90
2016,06,10,10,59,13.80
2016,06,10,11,00,13.80
2016,06,10,11,01,13.80
2016,06,10,11,02,13.80
2016,06,10,11,03,13.80
2016,06,10,11,04,13.80
2016,06,10,11,05,13.80
2016,06,10,11,06,13.80
2016,06,10,11,07,13.80
2016,06,10,11,08,13.80
2016,06,10,11,09,13.80
2016,06,10,11,10,13.80
2016,06,10,11,11,13.80
2016,06,10,11,12,13.80
2016,06,10,11,13,13.80
2016,06,10,11,14,13.80
2016,06,10,11,15,13.90
2016,06,10,11,16,13.90
2016,06,10,11,17,14.00
2016,06,10,11,18,14.00
2016,06,10,11,19,14.00
2016,06,10,11,20,14.10
2016,06,10,11,21,14.10
2016,06,10,11,22,14.10
2016,06,10,11,23,14.10
2016,06,10,11,24,14.10
2016,06,10,11,25,14.10
2016,06,10,11,26,14.10
2016,06,10,11,27,14.10
2016,06,10,11,28,14.10
2016,06,10,11,29,14.00
2016,06,10,11,30,13.90
2016,06,10,11,31,13.80
2016,06,10,11,32,13.80
2016,06,10,11,33,13.70
2016,06,10,11,34,13.70
2016,06,10,11,35,13.70
2016,06,10,11,36,13.70
2016,06,10,11,37,13.70
2016,06,10,11,38,13.60
2016,06,10,11,39,13.60
2016,06,10,11,40,13.60
2016,06,10,11,41,13.50
2016,06,10,11,42,13.50
2016,06,10,11,43,13.40
2016,06,10,11,44,13.40
2016,06,10,11,45,13.30
2016,06,10,11,46,13.30
2016,06,10,11,47,13.30
2016,06,10,11,48,13.20
2016,06,10,11,49,13.30
2016,06,10,11,50,13.30
2016,06,10,11,51,13.30
2016,06,10,11,52,13.30
2016,06,10,11,53,13.30
2016,06,10,11,54,13.30
2016,06,10,11,55,13.30
2016,06,10,11,56,13.30
2016,06,10,11,57,13.30
2016,06,10,11,58,13.30
2016,06,10,11,59,13.30
2016,06,10,12,00,13.30
2016,06,10,12,01,13.30
2016,06,10,12,02,13.40
2016,06,10,12,03,13.40
2016,06,10,12,04,13.50
2016,06,10,12,05,13.50
2016,06,10,12,06,13.60
2016,06,10,12,07,13.60
2016,06,10,12,08,13.60
2016,06,10,12,09,13.60
2016,06,10,12,10,13.60
2016,06,10,12,11,13.60
2016,06,10,12,12,13.60
2016,06,10,12,13,13.50
2016,06,10,12,14,13.40
2016,06,10,12,15,13.30
2016,06,10,12,16,13.30
2016,06,10,12,17,13.20
2016,06,10,12,18,13.20
2016,06,10,12,19,13.10
2016,06,10,12,20,13.00
2016,06,10,12,21,13.00
2016,06,10,12,22,12.90
2016,06,10,12,23,12.90
2016,06,10,12,24,12.90
2016,06,10,12,25,13.00
2016,06,10,12,26,13.00
2016,06,10,12,27,13.00
2016,06,10,12,28,13.10
2016,06,10,12,29,13.20
2016,06,10,12,30,13.20
2016,06,10,12,31,13.30
2016,06,10,12,32,13.30
2016,06,10,12,33,13.20
2016,06,10,12,34,13.20
2016,06,10,12,35,13.20
2016,06,10,12,36,13.20
2016,06,10,12,37,13.20
2016,06,10,12,38,13.20
2016,06,10,12,39,13.20
2016,06,10,12,40,13.10
2016,06,10,12,41,13.10
2016,06,10,12,42,13.00
2016,06,10,12,43,13.00
2016,06,10,12,44,12.90
2016,06,10,12,45,12.90
2016,06,10,12,46,13.00
2016,06,10,12,47,13.00
2016,06,10,12,48,13.10
2016,06,10,12,49,13.10
2016,06,10,12,50,13.10
2016,06,10,12,51,13.10
2016,06,10,12,52,13.10
2016,06,10,12,53,13.10
2016,06,10,12,54,13.00
2016,06,10,12,55,13.00
2016,06,10,12,56,13.10
2016,06,10,12,57,13.10
2016,06,10,12,58,13.10
2016,06,10,12,59,13.10
2016,06,10,13,00,13.10
2016,06,10,13,01,13.10
2016,06,10,13,02,13.10
2016,06,10,13,03,13.10
2016,06,10,13,04,13.10
2016,06,10,13,05,13.20
2016,06,10,13,06,13.20
2016,06,10,13,07,13.30
2016,06,10,13,08,13.30
2016,06,10,13,09,13.40
2016,06,10,13,10,13.50
2016,06,10,13,11,13.60
2016,06,10,13,12,13.60
2016,06,10,13,13,13.80
2016,06,10,13,14,13.90
2016,06,10,13,15,14.00
2016,06,10,13,16,14.10
2016,06,10,13,17,14.20
2016,06,10,13,18,14.10
2016,06,10,13,19,14.10
2016,06,10,13,20,14.00
2016,06,10,13,21,13.90
2016,06,10,13,22,13.80
2016,06,10,13,23,13.90
2016,06,10,13,24,13.90
2016,06,10,13,25,13.80
2016,06,10,13,26,13.90
2016,06,10,13,27,13.90
2016,06,10,13,28,13.90
2016,06,10,13,29,13.90
2016,06,10,13,30,13.90
2016,06,10,13,31,13.80
2016,06,10,13,32,13.80
2016,06,10,13,33,13.80
2016,06,10,13,34,13.70
2016,06,10,13,35,13.70
2016,06,10,13,36,13.80
2016,06,10,13,37,13.80
2016,06,10,13,38,13.80
2016,06,10,13,39,13.90
2016,06,10,13,40,13.90
2016,06,10,13,41,13.90
2016,06,10,13,42,13.90
2016,06,10,13,43,13.90
2016,06,10,13,44,13.90
2016,06,10,13,45,13.90
2016,06,10,13,46,13.90
2016,06,10,13,47,13.90
2016,06,10,13,48,13.80
2016,06,10,13,49,13.80
2016,06,10,13,50,13.80
2016,06,10,13,51,13.80
2016,06,10,13,52,13.70
2016,06,10,13,53,13.70
2016,06,10,13,54,13.70
2016,06,10,13,55,13.70
2016,06,10,13,56,13.70
2016,06,10,13,57,13.70
2016,06,10,13,58,13.70
2016,06,10,13,59,13.60
2016,06,10,14,00,13.60
2016,06,10,14,01,13.50
2016,06,10,14,02,13.50
2016,06,10,14,03,13.40
2016,06,10,14,04,13.40
2016,06,10,14,05,13.30
2016,06,10,14,06,13.30
2016,06,10,14,07,13.20
2016,06,10,14,08,13.20
2016,06,10,14,09,13.20
2016,06,10,14,10,13.10
2016,06,10,14,11,13.10
2016,06,10,14,12,13.10
2016,06,10,14,13,13.10
2016,06,10,14,14,13.00
2016,06,10,14,15,13.00
2016,06,10,14,16,13.00
2016,06,10,14,17,13.00
2016,06,10,14,18,12.90
2016,06,10,14,19,12.90
2016,06,10,14,20,12.90
2016,06,10,14,21,12.90
2016,06,10,14,22,12.80
2016,06,10,14,23,12.80
2016,06,10,14,24,12.80
2016,06,10,14,25,12.70
2016,06,10,14,26,12.70
2016,06,10,14,27,12.70
2016,06,10,14,28,12.70
2016,06,10,14,29,12.60
2016,06,10,14,30,12.60
2016,06,10,14,31,12.60
2016,06,10,14,32,12.50
2016,06,10,14,33,12.50
2016,06,10,14,34,12.50
2016,06,10,14,35,12.40
2016,06,10,14,36,12.40
2016,06,10,14,37,12.40
2016,06,10,14,38,12.40
2016,06,10,14,39,12.40
2016,06,10,14,40,12.40
2016,06,10,14,41,12.40
2016,06,10,14,42,12.50
2016,06,10,14,43,12.50
2016,06,10,14,44,12.50
2016,06,10,14,45,12.50
2016,06,10,14,46,12.50
2016,06,10,14,47,12.40
2016,06,10,14,48,12.40
2016,06,10,14,49,12.40
2016,06,10,14,50,12.40
2016,06,10,14,51,12.30
2016,06,10,14,52,12.30
2016,06,10,14,53,12.30
2016,06,10,14,54,12.40
2016,06,10,14,55,12.40
2016,06,10,14,56,12.40
2016,06,10,14,57,12.50
2016,06,10,14,58,12.50
2016,06,10,14,59,12.60
2016,06,10,15,00,12.60
2016,06,10,15,01,12.60
2016,06,10,15,02,12.70
2016,06,10,15,03,12.60
2016,06,10,15,04,12.70
2016,06,10,15,05,12.70
2016,06,10,15,06,12.70
2016,06,10,15,07,12.70
2016,06,10,15,08,12.70
2016,06,10,15,09,12.70
2016,06,10,15,10,12.70
2016,06,10,15,11,12.70
2016,06,10,15,12,12.70
2016,06,10,15,13,12.70
2016,06,10,15,14,12.70
2016,06,10,15,15,12.70
2016,06,10,15,16,12.80
2016,06,10,15,17,12.80
2016,06,10,15,18,12.80
2016,06,10,15,19,12.80
2016,06,10,15,20,12.80
2016,06,10,15,21,12.90
2016,06,10,15,22,12.90
2016,06,10,15,23,12.90
2016,06,10,15,24,13.00
2016,06,10,15,25,13.00
2016,06,10,15,26,13.00
2016,06,10,15,27,13.00
2016,06,10,15,28,13.00
2016,06,10,15,29,13.10
2016,06,10,15,30,13.10
2016,06,10,15,31,13.10
2016,06,10,15,32,13.20
2016,06,10,15,33,13.20
2016,06,10,15,34,13.20
2016,06,10,15,35,13.20
2016,06,10,15,36,13.20
2016,06,10,15,37,13.20
2016,06,10,15,38,13.20
2016,06,10,15,39,13.30
2016,06,10,15,40,13.40
2016,06,10,15,41,13.40
2016,06,10,15,42,13.40
2016,06,10,15,43,13.50
2016,06,10,15,44,13.50
2016,06,10,15,45,13.60
2016,06,10,15,46,13.60
2016,06,10,15,47,13.60
2016,06,10,15,48,13.60
2016,06,10,15,49,13.60
2016,06,10,15,50,13.60
2016,06,10,15,51,13.70
2016,06,10,15,52,13.70
2016,06,10,15,53,13.70
2016,06,10,15,54,13.80
2016,06,10,15,55,13.80
2016,06,10,15,56,13.90
2016,06,10,15,57,13.90
2016,06,10,15,58,13.90
2016,06,10,15,59,14.00
2016,06,10,16,00,14.00
2016,06,10,16,01,14.10
2016,06,10,16,02,14.10
2016,06,10,16,03,14.20
2016,06,10,16,04,14.20
2016,06,10,16,05,14.20
2016,06,10,16,06,14.20
2016,06,10,16,07,14.30
2016,06,10,16,08,14.30
2016,06,10,16,09,14.30
2016,06,10,16,10,14.40
2016,06,10,16,11,14.40
2016,06,10,16,12,14.50
2016,06,10,16,13,14.60
2016,06,10,16,14,14.60
2016,06,10,16,15,14.70
2016,06,10,16,16,14.80
2016,06,10,16,17,14.90
2016,06,10,16,18,15.00
2016,06,10,16,19,15.00
2016,06,10,16,20,15.00
2016,06,10,16,21,15.00
2016,06,10,16,22,15.00
2016,06,10,16,23,15.00
2016,06,10,16,24,15.00
2016,06,10,16,25,15.00
2016,06,10,16,26,15.10
2016,06,10,16,27,15.10
2016,06,10,16,28,15.20
2016,06,10,16,29,15.20
2016,06,10,16,30,15.20
2016,06,10,16,31,15.10
2016,06,10,16,32,15.10
2016,06,10,16,33,15.10
2016,06,10,16,34,15.20
2016,06,10,16,35,15.30
2016,06,10,16,36,15.30
2016,06,10,16,37,15.30
2016,06,10,16,38,15.30
2016,06,10,16,39,15.40
2016,06,10,16,40,15.40
2016,06,10,16,41,15.40
2016,06,10,16,42,15.40
2016,06,10,16,43,15.50
2016,06,10,16,44,15.50
2016,06,10,16,45,15.50
2016,06,10,16,46,15.50
2016,06,10,16,47,15.50
2016,06,10,16,48,15.50
2016,06,10,16,49,15.50
2016,06,10,16,50,15.50
2016,06,10,16,51,15.50
2016,06,10,16,52,15.40
2016,06,10,16,53,15.40
2016,06,10,16,54,15.30
2016,06,10,16,55,15.30
2016,06,10,16,56,15.30
2016,06,10,16,57,15.20
2016,06,10,16,58,15.20
2016,06,10,16,59,15.20
2016,06,10,17,00,15.20
2016,06,10,17,01,15.20
2016,06,10,17,02,15.20
2016,06,10,17,03,15.10
2016,06,10,17,04,15.10
2016,06,10,17,05,15.10
2016,06,10,17,06,15.10
2016,06,10,17,07,15.10
2016,06,10,17,08,15.10
2016,06,10,17,09,15.20
2016,06,10,17,10,15.20
2016,06,10,17,11,15.20
2016,06,10,17,12,15.20
2016,06,10,17,13,15.20
2016,06,10,17,14,15.10
2016,06,10,17,15,15.10
2016,06,10,17,16,15.10
2016,06,10,17,17,15.10
2016,06,10,17,18,15.10
2016,06,10,17,19,15.20
2016,06,10,17,20,15.20
2016,06,10,17,21,15.20
2016,06,10,17,22,15.20
2016,06,10,17,23,15.20
2016,06,10,17,24,15.20
2016,06,10,17,25,15.30
2016,06,10,17,26,15.30
2016,06,10,17,27,15.30